| time (UTC) | temp F | wind direction | speed MPH | gust MPH | rain 1hr in | rain 24hr in | rain mn in | humidity % | barometer mb |
| 20260504050541 | 62 | 0 | 0.0 | 1.0 | 0.00 | 0.00 | 0.00 | 67 | 1007.0 |
| 20260504045540 | 62 | 0 | 0.0 | 0.0 | 0.00 | 0.00 | 0.00 | 66 | 1007.1 |
| 20260504045040 | 63 | 0 | 0.0 | 0.0 | 0.00 | 0.00 | 0.00 | 64 | 1007.2 |
| 20260504044553 | 63 | 0 | 0.0 | 1.0 | 0.00 | 0.00 | 0.00 | 63 | 1007.1 |
| 20260504044040 | 64 | 0 | 0.0 | 1.0 | 0.00 | 0.00 | 0.00 | 62 | 1007.2 |
| 20260504043542 | 65 | 0 | 0.0 | 1.0 | 0.00 | 0.00 | 0.00 | 60 | 1007.2 |
| 20260504043109 | 65 | 0 | 0.0 | 2.0 | 0.00 | 0.00 | 0.00 | 59 | 1007.3 |
| 20260504042541 | 66 | 0 | 0.0 | 4.0 | 0.00 | 0.00 | 0.00 | 59 | 1007.4 |
| 20260504042040 | 66 | 0 | 0.0 | 5.0 | 0.00 | 0.00 | 0.00 | 58 | 1007.4 |
| 20260504041552 | 66 | 187 | 1.0 | 5.0 | 0.00 | 0.00 | 0.00 | 58 | 1007.6 |
| 20260504041040 | 66 | 0 | 1.0 | 4.0 | 0.00 | 0.00 | 0.00 | 58 | 1007.6 |
| 20260504040540 | 66 | 0 | 0.0 | 3.0 | 0.00 | 0.00 | 0.00 | 58 | 1007.5 |
| 20260504040049 | 66 | 46 | 0.0 | 1.0 | 0.00 | 0.00 | 0.00 | 58 | 1007.6 |
| 20260504035544 | 67 | 0 | 0.0 | 0.0 | 0.00 | 0.00 | 0.00 | 57 | 1007.7 |
| 20260504035043 | 67 | 0 | 0.0 | 0.0 | 0.00 | 0.00 | 0.00 | 56 | 1007.7 |
| 20260504034553 | 67 | 0 | 0.0 | 0.0 | 0.00 | 0.00 | 0.00 | 56 | 1007.7 |
| 20260504034040 | 67 | 0 | 0.0 | 0.0 | 0.00 | 0.00 | 0.00 | 55 | 1007.8 |
| 20260504033541 | 67 | 0 | 0.0 | 0.0 | 0.00 | 0.00 | 0.00 | 55 | 1007.7 |
| 20260504033103 | 67 | 0 | 0.0 | 0.0 | 0.00 | 0.00 | 0.00 | 56 | 1007.7 |
| 20260504032541 | 67 | 0 | 0.0 | 0.0 | 0.00 | 0.00 | 0.00 | 55 | 1007.6 |
| 20260504032041 | 67 | 0 | 0.0 | 0.0 | 0.00 | 0.00 | 0.00 | 55 | 1007.6 |
| 20260504031559 | 68 | 0 | 0.0 | 0.0 | 0.00 | 0.00 | 0.00 | 54 | 1007.6 |
| 20260504031041 | 68 | 0 | 0.0 | 0.0 | 0.00 | 0.00 | 0.00 | 54 | 1007.7 |
| 20260504030540 | 68 | 0 | 0.0 | 0.0 | 0.00 | 0.00 | 0.00 | 54 | 1007.6 |
| 20260504030104 | 68 | 0 | 0.0 | 0.0 | 0.00 | 0.00 | 0.00 | 53 | 1007.6 |
| 20260504025540 | 68 | 0 | 0.0 | 1.0 | 0.00 | 0.00 | 0.00 | 54 | 1007.6 |
| 20260504025041 | 68 | 0 | 0.0 | 1.0 | 0.00 | 0.00 | 0.00 | 55 | 1007.5 |
| 20260504024550 | 68 | 0 | 0.0 | 3.0 | 0.00 | 0.00 | 0.00 | 54 | 1007.5 |
| 20260504024040 | 69 | 0 | 0.0 | 3.0 | 0.00 | 0.00 | 0.00 | 54 | 1007.5 |
| 20260504023543 | 68 | 101 | 0.0 | 1.0 | 0.00 | 0.00 | 0.00 | 54 | 1007.5 |
| 20260504023052 | 68 | 0 | 0.0 | 1.0 | 0.00 | 0.00 | 0.00 | 54 | 1007.4 |
| 20260504022543 | 68 | 0 | 0.0 | 1.0 | 0.00 | 0.00 | 0.00 | 54 | 1007.4 |
| 20260504022042 | 69 | 65 | 0.0 | 1.0 | 0.00 | 0.00 | 0.00 | 53 | 1007.4 |
| 20260504021558 | 69 | 0 | 0.0 | 2.0 | 0.00 | 0.00 | 0.00 | 53 | 1007.5 |
| 20260504021040 | 69 | 0 | 0.0 | 2.0 | 0.00 | 0.00 | 0.00 | 52 | 1007.7 |
| 20260504020542 | 69 | 0 | 0.0 | 1.0 | 0.00 | 0.00 | 0.00 | 53 | 1007.6 |
| 20260504020055 | 69 | 0 | 0.0 | 0.0 | 0.00 | 0.00 | 0.00 | 52 | 1007.4 |
| 20260504015541 | 70 | 0 | 0.0 | 0.0 | 0.00 | 0.00 | 0.00 | 50 | 1007.5 |
| 20260504015041 | 70 | 0 | 0.0 | 0.0 | 0.00 | 0.00 | 0.00 | 50 | 1007.4 |
| 20260504014554 | 71 | 0 | 0.0 | 1.0 | 0.00 | 0.00 | 0.00 | 49 | 1007.4 |
| 20260504014043 | 71 | 0 | 0.0 | 1.0 | 0.00 | 0.00 | 0.00 | 48 | 1007.4 |
| 20260504013547 | 71 | 0 | 0.0 | 2.0 | 0.00 | 0.00 | 0.00 | 48 | 1007.6 |
| 20260504013055 | 72 | 0 | 0.0 | 2.0 | 0.00 | 0.00 | 0.00 | 47 | 1007.5 |
| 20260504012540 | 72 | 0 | 0.0 | 1.0 | 0.00 | 0.00 | 0.00 | 47 | 1007.5 |
| 20260504012039 | 73 | 0 | 0.0 | 0.0 | 0.00 | 0.00 | 0.00 | 46 | 1007.5 |
| 20260504011553 | 73 | 0 | 0.0 | 0.0 | 0.00 | 0.00 | 0.00 | 45 | 1007.5 |
| 20260504011042 | 74 | 0 | 0.0 | 0.0 | 0.00 | 0.00 | 0.00 | 44 | 1007.5 |
| 20260504010544 | 74 | 0 | 0.0 | 4.0 | 0.00 | 0.00 | 0.00 | 45 | 1007.4 |
| 20260504010101 | 74 | 0 | 0.0 | 4.0 | 0.00 | 0.00 | 0.00 | 44 | 1007.6 |
| 20260504005541 | 74 | 0 | 0.0 | 2.0 | 0.00 | 0.00 | 0.00 | 44 | 1007.6 |
| 20260504005041 | 75 | 42 | 0.0 | 3.0 | 0.00 | 0.00 | 0.00 | 43 | 1007.3 |
| 20260504004553 | 75 | 0 | 0.0 | 3.0 | 0.00 | 0.00 | 0.00 | 43 | 1007.5 |
| 20260504004041 | 75 | 42 | 0.0 | 2.0 | 0.00 | 0.00 | 0.00 | 43 | 1007.5 |
| 20260504003541 | 76 | 0 | 0.0 | 3.0 | 0.00 | 0.00 | 0.00 | 41 | 1007.5 |
| 20260504003049 | 76 | 0 | 0.0 | 4.0 | 0.00 | 0.00 | 0.00 | 42 | 1007.4 |
| 20260504002540 | 76 | 40 | 0.0 | 4.0 | 0.00 | 0.00 | 0.00 | 40 | 1007.5 |
| 20260504002044 | 76 | 0 | 0.0 | 4.0 | 0.00 | 0.00 | 0.00 | 41 | 1007.6 |
| 20260504001558 | 77 | 0 | 1.0 | 4.0 | 0.00 | 0.00 | 0.00 | 39 | 1007.6 |
| 20260504001043 | 77 | 0 | 0.0 | 3.0 | 0.00 | 0.00 | 0.00 | 40 | 1007.6 |
| 20260504000543 | 77 | 0 | 0.0 | 3.0 | 0.00 | 0.00 | 0.00 | 39 | 1007.7 |
| 20260504000059 | 77 | 0 | 0.0 | 2.0 | 0.00 | 0.00 | 0.00 | 38 | 1007.8 |
| 20260503235540 | 77 | 0 | 0.0 | 2.0 | 0.00 | 0.00 | 0.00 | 38 | 1007.9 |
| 20260503235042 | 78 | 0 | 0.0 | 2.0 | 0.00 | 0.00 | 0.00 | 38 | 1007.9 |
| 20260503234550 | 78 | 0 | 0.0 | 2.0 | 0.00 | 0.00 | 0.00 | 39 | 1007.9 |
| 20260503234041 | 78 | 0 | 0.0 | 1.0 | 0.00 | 0.00 | 0.00 | 38 | 1007.9 |
| 20260503233540 | 78 | 0 | 0.0 | 1.0 | 0.00 | 0.00 | 0.00 | 38 | 1007.9 |
| 20260503233053 | 79 | 0 | 0.0 | 0.0 | 0.00 | 0.00 | 0.00 | 37 | 1008.1 |
| 20260503232543 | 79 | 0 | 0.0 | 0.0 | 0.00 | 0.00 | 0.00 | 37 | 1008.3 |
| 20260503232040 | 79 | 0 | 0.0 | 0.0 | 0.00 | 0.00 | 0.00 | 36 | 1008.1 |
| 20260503231547 | 79 | 0 | 0.0 | 3.0 | 0.00 | 0.00 | 0.00 | 34 | 1008.2 |
| 20260503231041 | 80 | 0 | 0.0 | 3.0 | 0.00 | 0.00 | 0.00 | 35 | 1008.2 |
| 20260503230541 | 80 | 303 | 0.0 | 1.0 | 0.00 | 0.00 | 0.00 | 36 | 1008.3 |
| 20260503230103 | 80 | 0 | 0.0 | 1.0 | 0.00 | 0.00 | 0.00 | 35 | 1008.3 |
| 20260503225543 | 80 | 0 | 0.0 | 1.0 | 0.00 | 0.00 | 0.00 | 36 | 1008.3 |
| 20260503225040 | 80 | 0 | 0.0 | 3.0 | 0.00 | 0.00 | 0.00 | 36 | 1008.4 |
| 20260503224550 | 81 | 0 | 0.0 | 3.0 | 0.00 | 0.00 | 0.00 | 36 | 1008.5 |
| 20260503224043 | 81 | 0 | 0.0 | 4.0 | 0.00 | 0.00 | 0.00 | 35 | 1008.6 |
| 20260503223543 | 80 | 300 | 0.0 | 4.0 | 0.00 | 0.00 | 0.00 | 35 | 1008.6 |
| 20260503223107 | 81 | 327 | 0.0 | 5.0 | 0.00 | 0.00 | 0.00 | 33 | 1008.7 |
| 20260503222543 | 81 | 0 | 1.0 | 5.0 | 0.00 | 0.00 | 0.00 | 34 | 1008.8 |
| 20260503222040 | 81 | 176 | 0.0 | 4.0 | 0.00 | 0.00 | 0.00 | 33 | 1008.8 |
| 20260503221552 | 81 | 0 | 0.0 | 4.0 | 0.00 | 0.00 | 0.00 | 34 | 1008.8 |
| 20260503221043 | 81 | 310 | 0.0 | 3.0 | 0.00 | 0.00 | 0.00 | 35 | 1008.8 |
| 20260503220541 | 81 | 217 | 0.0 | 4.0 | 0.00 | 0.00 | 0.00 | 34 | 1008.8 |
| 20260503220054 | 81 | 263 | 1.0 | 4.0 | 0.00 | 0.00 | 0.00 | 33 | 1008.9 |
| 20260503215542 | 82 | 351 | 1.0 | 4.0 | 0.00 | 0.00 | 0.00 | 34 | 1008.9 |
| 20260503215041 | 82 | 338 | 1.0 | 4.0 | 0.00 | 0.00 | 0.00 | 33 | 1008.9 |
| 20260503214557 | 82 | 0 | 0.0 | 6.0 | 0.00 | 0.00 | 0.00 | 34 | 1008.9 |
| 20260503214041 | 82 | 312 | 2.0 | 6.0 | 0.00 | 0.00 | 0.00 | 33 | 1009.1 |
| 20260503213541 | 81 | 333 | 0.0 | 3.0 | 0.00 | 0.00 | 0.00 | 36 | 1009.2 |
| 20260503213050 | 81 | 323 | 0.0 | 6.0 | 0.00 | 0.00 | 0.00 | 34 | 1009.3 |
| 20260503212540 | 82 | 0 | 1.0 | 6.0 | 0.00 | 0.00 | 0.00 | 34 | 1009.4 |
| 20260503212041 | 82 | 288 | 1.0 | 7.0 | 0.00 | 0.00 | 0.00 | 34 | 1009.7 |
| 20260503211550 | 82 | 316 | 1.0 | 7.0 | 0.00 | 0.00 | 0.00 | 35 | 1009.7 |
| 20260503211041 | 82 | 317 | 2.0 | 6.0 | 0.00 | 0.00 | 0.00 | 32 | 1009.8 |
| 20260503210541 | 82 | 0 | 1.0 | 5.0 | 0.00 | 0.00 | 0.00 | 33 | 1009.9 |
| 20260503210049 | 82 | 0 | 2.0 | 5.0 | 0.00 | 0.00 | 0.00 | 35 | 1010.0 |
| 20260503205541 | 81 | 320 | 0.0 | 5.0 | 0.00 | 0.00 | 0.00 | 38 | 1010.0 |
| 20260503205042 | 82 | 309 | 1.0 | 8.0 | 0.00 | 0.00 | 0.00 | 34 | 1010.0 |
| 20260503204548 | 82 | 307 | 1.0 | 8.0 | 0.00 | 0.00 | 0.00 | 33 | 1010.2 |
| 20260503204044 | 82 | 183 | 3.0 | 9.0 | 0.00 | 0.00 | 0.00 | 34 | 1010.2 |
| 20260503203544 | 82 | 5 | 2.0 | 9.0 | 0.00 | 0.00 | 0.00 | 35 | 1010.3 |
| 20260503203053 | 82 | 276 | 2.0 | 9.0 | 0.00 | 0.00 | 0.00 | 35 | 1010.5 |
| 20260503202546 | 82 | 298 | 2.0 | 9.0 | 0.00 | 0.00 | 0.00 | 34 | 1010.6 |
| 20260503202045 | 82 | 223 | 1.0 | 7.0 | 0.00 | 0.00 | 0.00 | 35 | 1010.7 |
| 20260503201553 | 81 | 335 | 2.0 | 9.0 | 0.00 | 0.00 | 0.00 | 38 | 1010.8 |
| 20260503201044 | 80 | 225 | 1.0 | 9.0 | 0.00 | 0.00 | 0.00 | 35 | 1010.8 |
| 20260503200544 | 81 | 317 | 2.0 | 9.0 | 0.00 | 0.00 | 0.00 | 35 | 1010.9 |
| 20260503200054 | 81 | 0 | 1.0 | 8.0 | 0.00 | 0.00 | 0.00 | 37 | 1010.9 |
| 20260503195545 | 82 | 317 | 1.0 | 9.0 | 0.00 | 0.00 | 0.00 | 34 | 1011.0 |
| 20260503195045 | 81 | 0 | 1.0 | 9.0 | 0.00 | 0.00 | 0.00 | 38 | 1011.0 |
| 20260503194619 | 81 | 275 | 2.0 | 8.0 | 0.00 | 0.00 | 0.00 | 36 | 1011.1 |
| 20260503194049 | 81 | 198 | 1.0 | 7.0 | 0.00 | 0.00 | 0.00 | 39 | 1011.1 |
| 20260503193544 | 81 | 297 | 1.0 | 6.0 | 0.00 | 0.00 | 0.00 | 38 | 1011.2 |
| 20260503193052 | 81 | 271 | 2.0 | 11.0 | 0.00 | 0.00 | 0.00 | 36 | 1011.2 |
| 20260503192544 | 81 | 321 | 4.0 | 11.0 | 0.00 | 0.00 | 0.00 | 34 | 1011.1 |
| 20260503192044 | 81 | 262 | 2.0 | 9.0 | 0.00 | 0.00 | 0.00 | 36 | 1011.3 |
| 20260503191554 | 82 | 308 | 1.0 | 8.0 | 0.00 | 0.00 | 0.00 | 38 | 1011.3 |
| 20260503191046 | 81 | 0 | 1.0 | 10.0 | 0.00 | 0.00 | 0.00 | 37 | 1011.3 |
| 20260503190545 | 81 | 313 | 2.0 | 10.0 | 0.00 | 0.00 | 0.00 | 35 | 1011.3 |
| 20260503190050 | 81 | 268 | 3.0 | 9.0 | 0.00 | 0.00 | 0.00 | 34 | 1011.4 |
| 20260503185543 | 82 | 335 | 1.0 | 7.0 | 0.00 | 0.00 | 0.00 | 37 | 1011.5 |
| 20260503185045 | 81 | 172 | 1.0 | 13.0 | 0.00 | 0.00 | 0.00 | 34 | 1011.5 |
| 20260503184552 | 81 | 0 | 1.0 | 13.0 | 0.00 | 0.00 | 0.00 | 38 | 1011.6 |
| 20260503184045 | 81 | 283 | 3.0 | 9.0 | 0.00 | 0.00 | 0.00 | 35 | 1011.5 |
| 20260503183544 | 81 | 0 | 2.0 | 12.0 | 0.00 | 0.00 | 0.00 | 36 | 1011.6 |
| 20260503183104 | 81 | 165 | 3.0 | 12.0 | 0.00 | 0.00 | 0.00 | 35 | 1011.8 |
| 20260503182544 | 81 | 177 | 2.0 | 13.0 | 0.00 | 0.00 | 0.00 | 35 | 1011.8 |
| 20260503182045 | 80 | 194 | 4.0 | 13.0 | 0.00 | 0.00 | 0.00 | 34 | 1011.9 |
| 20260503181605 | 81 | 214 | 3.0 | 13.0 | 0.00 | 0.00 | 0.00 | 35 | 1012.0 |
| 20260503181046 | 81 | 280 | 3.0 | 9.0 | 0.00 | 0.00 | 0.00 | 35 | 1012.1 |
| 20260503180544 | 80 | 285 | 2.0 | 11.0 | 0.00 | 0.00 | 0.00 | 35 | 1012.1 |
| 20260503180054 | 80 | 360 | 3.0 | 11.0 | 0.00 | 0.00 | 0.00 | 35 | 1012.2 |
| 20260503175544 | 80 | 245 | 2.0 | 8.0 | 0.00 | 0.00 | 0.00 | 37 | 1012.1 |
| 20260503175044 | 80 | 195 | 1.0 | 10.0 | 0.00 | 0.00 | 0.00 | 34 | 1012.3 |
| 20260503174606 | 80 | 285 | 3.0 | 11.0 | 0.00 | 0.00 | 0.00 | 38 | 1012.4 |
| 20260503174044 | 80 | 267 | 4.0 | 11.0 | 0.00 | 0.00 | 0.00 | 37 | 1012.4 |
| 20260503173544 | 79 | 263 | 1.0 | 12.0 | 0.00 | 0.00 | 0.00 | 35 | 1012.4 |
| 20260503173054 | 79 | 202 | 3.0 | 17.0 | 0.00 | 0.00 | 0.00 | 37 | 1012.5 |
| 20260503172544 | 78 | 244 | 4.0 | 17.0 | 0.00 | 0.00 | 0.00 | 38 | 1012.6 |
| 20260503172045 | 78 | 253 | 5.0 | 17.0 | 0.00 | 0.00 | 0.00 | 37 | 1012.7 |
| 20260503171547 | 78 | 224 | 3.0 | 9.0 | 0.00 | 0.00 | 0.00 | 38 | 1012.8 |
| 20260503171044 | 78 | 172 | 3.0 | 9.0 | 0.00 | 0.00 | 0.00 | 41 | 1012.8 |
| 20260503170545 | 77 | 226 | 4.0 | 9.0 | 0.00 | 0.00 | 0.00 | 38 | 1012.9 |
| 20260503170103 | 77 | 206 | 3.0 | 12.0 | 0.00 | 0.00 | 0.00 | 40 | 1012.9 |
| 20260503150544 | 67 | 236 | 4.0 | 15.0 | 0.00 | 0.00 | 0.00 | 50 | 1014.0 |
| 20260503131041 | 55 | 213 | 5.0 | 13.0 | 0.00 | 0.00 | 0.00 | 59 | 1014.2 |
| 20260503130541 | 55 | 229 | 5.0 | 13.0 | 0.00 | 0.00 | 0.00 | 59 | 1014.2 |
| 20260503110540 | 52 | 194 | 3.0 | 12.0 | 0.00 | 0.00 | 0.00 | 57 | 1014.5 |
| 20260503081553 | 52 | 219 | 5.0 | 12.0 | 0.00 | 0.00 | 0.00 | 52 | 1015.8 |
| 20260503081046 | 52 | 194 | 3.0 | 12.0 | 0.00 | 0.00 | 0.00 | 53 | 1015.8 |
| 20260503080548 | 52 | 168 | 3.0 | 14.0 | 0.00 | 0.00 | 0.00 | 53 | 1015.8 |
| 20260503072546 | 51 | 153 | 3.0 | 9.0 | 0.00 | 0.00 | 0.00 | 57 | 1016.2 |
| 20260503072044 | 51 | 0 | 2.0 | 9.0 | 0.00 | 0.00 | 0.00 | 58 | 1016.2 |
| 20260503071557 | 51 | 173 | 3.0 | 9.0 | 0.00 | 0.00 | 0.00 | 58 | 1016.3 |
| 20260503071044 | 51 | 202 | 3.0 | 9.0 | 0.00 | 0.00 | 0.00 | 58 | 1016.3 |
| 20260503070544 | 51 | 219 | 2.0 | 11.0 | 0.00 | 0.00 | 0.00 | 58 | 1016.3 |